Location: Unspecified
(49.2170°N, 0.0000°E)
Time: 00:56:13
(UTC+00:00)

Explorer 7 - Pass Details

Date: 27 January 2021
Orbit: 484 x 677 km, 50.3° (Epoch: 06 March)

Event Time Altitude Azimuth Distance (km) Brightness Sun altitude
Exits shadow 06:24:20 18° 278° (W) 1,293 8.1 -12.0°
Maximum altitude 06:27:08 75° 1° (N) 551 6.7 -11.5°
Drops below altitude 10° 06:31:16 10° 88° (E) 1,828 10.8 -10.9°
Sets 06:33:36 0° 90° (E) 2,758 12.1 -10.5°
